Location: Arrodets-la-Barthe
(43.0306°N, 0.2829°E)
Time: 15:21:52
(UTC+00:00)

Cosmos 44 - Pass Details

Date: 24 October 2021
Orbit: 580 x 782 km, 65.1° (Epoch: 06 December)

Event Time Altitude Azimuth Distance (km) Brightness Sun altitude
Rises 18:30:47 0° 208° (SSW) 3,246 7.2 -16.9°
Reaches altitude 10° 18:33:11 10° 207° (SSW) 2,327 6.3 -17.3°
Maximum altitude 18:38:34 79° 121° (ESE) 796 3.4 -18.3°
Enters shadow 18:42:36 18° 37° (NE) 1,825 5.1 -19.0°
